This is the latest recevied weather packets stored in our database for station/object KJ5EHN. If no packets are shown the sender has not sent any weather packets the latest 1 day(s).
| Time | Temp. | Humidity | Pressure | Rain* | Wind** | Luminosity | Snow |
|---|---|---|---|---|---|---|---|
| 1777996600 | 25.56° C | 74% | 1004.5 hPa | 0 mm | 2.24 m/s, 310° | - | - |
| 1777996296 | 25° C | 75% | 1004.5 hPa | 0 mm | 1.79 m/s, 213° | - | - |
| 1777995993 | 25° C | 75% | 1004.4 hPa | 0 mm | 3.58 m/s, 205° | - | - |
| 1777995689 | 25° C | 76% | 1004.6 hPa | 0 mm | 2.68 m/s, 335° | - | - |
| 1777995386 | 24.44° C | 76% | 1004.3 hPa | 0 mm | 4.02 m/s, 200° | - | - |
| 1777995083 | 25° C | 76% | 1004.1 hPa | 0 mm | 4.02 m/s, 351° | - | - |
| 1777994780 | 24.44° C | 76% | 1004.3 hPa | 0 mm | 1.79 m/s, 334° | - | - |
| 1777994476 | 25° C | 75% | 1004.2 hPa | 0 mm | 3.13 m/s, 220° | - | - |
| 1777994171 | 25° C | 76% | 1004.3 hPa | 0 mm | 1.79 m/s, 279° | - | - |
| 1777993869 | 24.44° C | 76% | 1004.5 hPa | 0 mm | 3.58 m/s, 276° | - | - |
| 1777993565 | 24.44° C | 77% | 1004.6 hPa | 0 mm | 3.58 m/s, 234° | - | - |
| 1777993261 | 24.44° C | 76% | 1004.6 hPa | 0 mm | 3.58 m/s, 17° | - | - |
| 1777992957 | 25° C | 76% | 1004.6 hPa | 0 mm | 1.34 m/s, 284° | - | - |
| 1777992656 | 24.44° C | 76% | 1004.2 hPa | 0 mm | 4.47 m/s, 201° | - | - |
| 1777992353 | 24.44° C | 76% | 1004.1 hPa | 0 mm | 2.68 m/s, 99° | - | - |
| 1777992051 | 24.44° C | 76% | 1004.1 hPa | 0 mm | 4.02 m/s, 285° | - | - |
| 1777991748 | 24.44° C | 76% | 1004.3 hPa | 0 mm | 3.58 m/s, 285° | - | - |
| 1777991445 | 23.89° C | 78% | 1004.2 hPa | 0 mm | 4.02 m/s, 304° | - | - |
| 1777991142 | 23.89° C | 79% | 1003.9 hPa | 0 mm | 2.68 m/s, 341° | - | - |
| 1777990839 | 23.89° C | 79% | 1004 hPa | 0 mm | 2.24 m/s, 257° | - | - |
| 1777990537 | 23.89° C | 79% | 1004.2 hPa | 0 mm | 4.47 m/s, 159° | - | - |
| 1777990234 | 23.33° C | 80% | 1004 hPa | 0 mm | 2.24 m/s, 19° | - | - |
| 1777989930 | 23.33° C | 80% | 1004.3 hPa | 0 mm | 1.79 m/s, 278° | - | - |
| 1777989627 | 23.33° C | 80% | 1004 hPa | 0 mm | 1.34 m/s, 334° | - | - |
| 1777989323 | 23.33° C | 80% | 1003.9 hPa | 0 mm | 1.79 m/s, 167° | - | - |
* Rain latest hour (hover to see other rain measurements)
** Current wind speed in m/s (hover to see current wind gust speed)